EW1558 Weather Reports


Display with metric or nautical units.
time (UTC)temp
F
wind
direction
speed
MPH
gust
MPH
rain 1hr
in
rain 24hr
in
rain mn
in
humidity
%
barometer
mb
20260504004515 66 223 0.0 3.0 0.00 0.00 0.00 48 1003.4
20260504003012 67 221 0.0 5.0 0.00 0.00 0.00 46 1003.5
20260504001512 68 284 0.0 7.0 0.00 0.00 0.00 45 1003.4
20260504000011 68 313 1.0 10.0 0.00 0.00 0.00 44 1003.4
20260503234511 69 329 2.0 8.0 0.00 0.00 0.00 45 1003.4
20260503233010 69 207 2.0 9.0 0.00 0.00 0.00 45 1003.4
20260503231509 68 221 3.0 12.0 0.00 0.00 0.00 45 1003.5
20260503230009 68 221 3.0 16.0 0.00 0.00 0.00 44 1003.7
20260503224506 68 253 2.0 9.0 0.00 0.00 0.00 44 1003.8
20260503223006 68 261 1.0 15.0 0.00 0.00 0.00 44 1003.9
20260503221503 68 238 4.0 16.0 0.00 0.00 0.00 43 1004.1
20260503220002 68 207 2.0 15.0 0.00 0.00 0.00 43 1004.3
20260503214600 67 278 1.0 12.0 0.00 0.00 0.00 44 1004.4
20260503213059 68 235 3.0 10.0 0.00 0.00 0.00 42 1004.6
20260503211608 68 214 4.0 17.0 0.00 0.00 0.00 42 1004.7
20260503210057 67 141 5.0 14.0 0.00 0.00 0.00 42 1004.9
20260503204556 67 232 7.0 12.0 0.00 0.00 0.00 44 1005.2
20260503203050 66 195 7.0 15.0 0.00 0.00 0.00 45 1005.6
20260503201546 64 221 5.0 17.0 0.00 0.00 0.00 50 1006.1
20260503200044 64 158 3.0 12.0 0.00 0.00 0.00 49 1006.5
20260503194539 62 263 2.0 20.0 0.00 0.00 0.00 51 1006.6
20260503193047 62 207 8.0 19.0 0.00 0.00 0.00 50 1006.6
20260503191538 61 267 8.0 17.0 0.00 0.00 0.00 50 1006.9
20260503190036 62 207 10.0 23.0 0.00 0.00 0.00 50 1007.1
20260503184530 60 191 5.0 14.0 0.00 0.00 0.00 54 1007.3
20260503183035 58 223 8.0 29.0 0.00 0.00 0.00 56 1007.7
20260503181540 58 222 7.0 25.0 0.00 0.00 0.00 56 1007.9
20260503180021 59 218 6.0 18.0 0.00 0.00 0.00 57 1008.4
20260503174520 58 215 12.0 22.0 0.00 0.00 0.00 58 1008.9
20260503173037 58 291 6.0 15.0 0.00 0.00 0.00 61 1009.4
20260503171515 56 223 7.0 17.0 0.00 0.00 0.00 65 1009.7
20260503150107 56 190 3.0 10.0 0.00 0.00 0.00 58 1011.1
20260503081516 48 132 1.0 7.0 0.00 0.00 0.00 57 1012.9
20260503071506 47 227 0.0 8.0 0.00 0.00 0.00 59 1013.1
20260503060115 47 227 1.0 4.0 0.00 0.00 0.00 61 1013.8
20260503054554 46 203 0.0 3.0 0.00 0.00 0.00 62 1013.9
20260503053052 46 269 0.0 1.0 0.00 0.00 0.00 64 1014.1
20260503051550 46 251 0.0 2.0 0.00 0.00 0.00 64 1014.3
20260503050047 46 251 0.0 2.0 0.00 0.00 0.00 65 1014.4
20260503044613 46 249 0.0 0.0 0.00 0.00 0.00 65 1014.3
20260503043047 46 249 0.0 0.0 0.00 0.00 0.00 65 1014.4
20260503041550 46 249 0.0 0.0 0.00 0.00 0.00 65 1014.5
20260503040044 46 274 0.0 1.0 0.00 0.00 0.00 65 1014.6
20260503034543 46 274 0.0 3.0 0.00 0.00 0.00 64 1014.6
20260503033042 46 274 0.0 2.0 0.00 0.00 0.00 66 1014.7
20260503031542 46 275 0.0 1.0 0.00 0.00 0.00 67 1014.8
20260503030043 46 275 0.0 1.0 0.00 0.00 0.00 67 1014.9
20260503024541 45 275 0.0 2.0 0.00 0.00 0.00 68 1014.9
20260503023043 45 275 0.0 2.0 0.00 0.00 0.00 71 1014.9
20260503021540 45 275 0.0 3.0 0.00 0.00 0.00 75 1015.0
20260503020040 45 275 1.0 3.0 0.00 0.00 0.00 79 1014.9
20260503014549 45 271 1.0 3.0 0.00 0.00 0.00 81 1014.8
20260503013041 46 254 1.0 3.0 0.00 0.00 0.00 79 1014.7
20260503011537 48 248 1.0 3.0 0.00 0.00 0.00 75 1014.7
20260503010038 49 248 0.0 4.0 0.00 0.00 0.00 75 1014.8